| time (UTC) | temp F | wind direction | speed MPH | gust MPH | rain 1hr in | rain 24hr in | rain mn in | humidity % | barometer mb |
| 20260506204617 | 53 | 309 | 2.0 | 8.0 | 0.00 | 0.08 | 0.08 | 42 | 1017.7 |
| 20260506203628 | 52 | 303 | 2.0 | 5.0 | 0.00 | 0.08 | 0.08 | 47 | 1017.7 |
| 20260506202618 | 51 | 301 | 3.0 | 7.0 | 0.00 | 0.08 | 0.08 | 45 | 1017.7 |
| 20260506201613 | 51 | 305 | 3.0 | 8.0 | 0.00 | 0.08 | 0.08 | 43 | 1017.8 |
| 20260506200630 | 50 | 306 | 3.0 | 9.0 | 0.00 | 0.08 | 0.08 | 44 | 1017.9 |
| 20260506195629 | 50 | 331 | 3.0 | 9.0 | 0.00 | 0.08 | 0.08 | 43 | 1018.0 |
| 20260506194618 | 49 | 295 | 3.0 | 5.0 | 0.00 | 0.08 | 0.08 | 39 | 1018.2 |
| 20260506193628 | 49 | 289 | 4.0 | 9.0 | 0.00 | 0.08 | 0.08 | 42 | 1018.1 |
| 20260506192622 | 49 | 299 | 6.0 | 12.0 | 0.00 | 0.08 | 0.08 | 43 | 1018.1 |
| 20260506191650 | 48 | 279 | 7.0 | 10.0 | 0.00 | 0.08 | 0.08 | 45 | 1018.2 |
| 20260506190617 | 48 | 277 | 6.0 | 10.0 | 0.00 | 0.08 | 0.08 | 44 | 1018.3 |
| 20260506185618 | 48 | 306 | 5.0 | 9.0 | 0.00 | 0.08 | 0.08 | 41 | 1018.3 |
| 20260506184651 | 48 | 284 | 6.0 | 11.0 | 0.00 | 0.08 | 0.08 | 43 | 1018.4 |
| 20260506183616 | 47 | 350 | 8.0 | 11.0 | 0.00 | 0.08 | 0.08 | 44 | 1018.5 |
| 20260506182625 | 46 | 294 | 1.0 | 9.0 | 0.00 | 0.08 | 0.08 | 45 | 1018.5 |
| 20260506181634 | 45 | 292 | 1.0 | 8.0 | 0.00 | 0.08 | 0.08 | 52 | 1018.5 |
| 20260506180630 | 44 | 217 | 1.0 | 4.0 | 0.00 | 0.08 | 0.08 | 54 | 1018.6 |
| 20260506175636 | 43 | 175 | 4.0 | 6.0 | 0.00 | 0.08 | 0.08 | 49 | 1018.5 |
| 20260506174622 | 43 | 174 | 6.0 | 10.0 | 0.00 | 0.08 | 0.08 | 54 | 1018.5 |
| 20260506173631 | 42 | 223 | 1.0 | 6.0 | 0.00 | 0.08 | 0.08 | 58 | 1018.6 |
| 20260506172619 | 42 | 181 | 4.0 | 7.0 | 0.01 | 0.08 | 0.08 | 56 | 1018.6 |
| 20260506171646 | 42 | 323 | 3.0 | 6.0 | 0.01 | 0.08 | 0.08 | 65 | 1018.7 |
| 20260506170638 | 41 | 274 | 0.0 | 3.0 | 0.02 | 0.08 | 0.08 | 61 | 1018.7 |
| 20260506165618 | 40 | 171 | 3.0 | 9.0 | 0.02 | 0.10 | 0.08 | 60 | 1018.6 |
| 20260506164624 | 39 | 109 | 0.0 | 7.0 | 0.03 | 0.10 | 0.08 | 62 | 1018.6 |
| 20260506163613 | 39 | 134 | 4.0 | 7.0 | 0.04 | 0.10 | 0.08 | 64 | 1018.5 |
| 20260506162625 | 39 | 139 | 4.0 | 7.0 | 0.04 | 0.09 | 0.07 | 66 | 1018.5 |
| 20260506161634 | 38 | 103 | 4.0 | 8.0 | 0.05 | 0.09 | 0.07 | 67 | 1018.4 |
| 20260506160621 | 37 | 186 | 4.0 | 8.0 | 0.05 | 0.08 | 0.06 | 69 | 1018.3 |
| 20260506155639 | 37 | 74 | 5.0 | 13.0 | 0.06 | 0.26 | 0.06 | 71 | 1018.2 |
| 20260506154629 | 36 | 238 | 0.0 | 4.0 | 0.05 | 0.25 | 0.05 | 73 | 1018.2 |
| 20260506153617 | 36 | 237 | 2.0 | 4.0 | 0.04 | 0.24 | 0.04 | 75 | 1018.0 |
| 20260506152623 | 36 | 195 | 0.0 | 3.0 | 0.03 | 0.23 | 0.03 | 76 | 1018.0 |
| 20260506151630 | 36 | 194 | 0.0 | 3.0 | 0.02 | 0.22 | 0.02 | 76 | 1018.0 |
| 20260506150622 | 36 | 194 | 0.0 | 5.0 | 0.01 | 0.21 | 0.01 | 75 | 1017.9 |
| 20260506145622 | 35 | 193 | 2.0 | 5.0 | 0.00 | 0.27 | 0.00 | 76 | 1018.0 |
| 20260506144650 | 35 | 194 | 3.0 | 5.0 | 0.00 | 0.27 | 0.00 | 76 | 1017.8 |
| 20260506143616 | 35 | 195 | 2.0 | 5.0 | 0.00 | 0.27 | 0.00 | 77 | 1017.7 |
| 20260506142645 | 35 | 195 | 3.0 | 5.0 | 0.00 | 0.27 | 0.00 | 76 | 1017.7 |
| 20260506141616 | 34 | 186 | 1.0 | 5.0 | 0.00 | 0.27 | 0.00 | 79 | 1017.5 |
| 20260506140625 | 34 | 186 | 5.0 | 9.0 | 0.00 | 0.27 | 0.00 | 79 | 1017.4 |
| 20260506135626 | 34 | 173 | 4.0 | 8.0 | 0.00 | 0.37 | 0.00 | 81 | 1017.4 |
| 20260506134618 | 33 | 134 | 3.0 | 6.0 | 0.00 | 0.37 | 0.00 | 82 | 1017.3 |
| 20260506133628 | 32 | 96 | 4.0 | 6.0 | 0.00 | 0.37 | 0.00 | 82 | 1017.2 |
| 20260506132635 | 32 | 130 | 2.0 | 6.0 | 0.00 | 0.37 | 0.00 | 81 | 1017.1 |
| 20260506131623 | 32 | 146 | 3.0 | 5.0 | 0.00 | 0.37 | 0.00 | 81 | 1017.0 |
| 20260506130619 | 32 | 139 | 3.0 | 7.0 | 0.00 | 0.37 | 0.00 | 81 | 1016.8 |
| 20260506125643 | 31 | 136 | 3.0 | 9.0 | 0.00 | 0.40 | 0.00 | 81 | 1016.7 |
| 20260506124612 | 31 | 152 | 2.0 | 6.0 | 0.00 | 0.40 | 0.00 | 83 | 1016.4 |
| 20260506123619 | 32 | 161 | 3.0 | 6.0 | 0.00 | 0.40 | 0.00 | 83 | 1016.3 |
| 20260506122612 | 32 | 167 | 5.0 | 9.0 | 0.00 | 0.40 | 0.00 | 82 | 1016.2 |
| 20260506121621 | 32 | 227 | 3.0 | 4.0 | 0.00 | 0.40 | 0.00 | 82 | 1016.0 |
| 20260506120638 | 32 | 198 | 2.0 | 6.0 | 0.00 | 0.40 | 0.00 | 82 | 1015.7 |
| 20260506060632 | 36 | 52 | 11.0 | 16.0 | 0.00 | 0.64 | 0.00 | 82 | 1013.4 |
| 20260506050630 | 40 | 22 | 11.0 | 22.0 | 0.00 | 0.64 | 0.64 | 73 | 1011.2 |
| 20260506044644 | 42 | 24 | 11.0 | 22.0 | 0.00 | 0.64 | 0.64 | 71 | 1010.3 |
| 20260506043650 | 43 | 107 | 10.0 | 18.0 | 0.00 | 0.64 | 0.64 | 73 | 1010.1 |
| 20260506042617 | 44 | 111 | 10.0 | 21.0 | 0.00 | 0.64 | 0.64 | 72 | 1010.0 |
| 20260506041652 | 45 | 106 | 14.0 | 25.0 | 0.00 | 0.64 | 0.64 | 71 | 1009.6 |
| 20260506040620 | 46 | 114 | 10.0 | 21.0 | 0.00 | 0.64 | 0.64 | 68 | 1009.2 |
| 20260506035620 | 51 | 69 | 10.0 | 19.0 | 0.00 | 0.64 | 0.64 | 56 | 1009.1 |
| 20260506034648 | 51 | 191 | 3.0 | 5.0 | 0.00 | 0.64 | 0.64 | 51 | 1008.6 |
| 20260506033614 | 50 | 143 | 2.0 | 5.0 | 0.00 | 0.64 | 0.64 | 55 | 1008.7 |
| 20260506032645 | 50 | 130 | 2.0 | 9.0 | 0.00 | 0.64 | 0.64 | 55 | 1008.6 |
| 20260506031616 | 50 | 171 | 5.0 | 7.0 | 0.00 | 0.64 | 0.64 | 56 | 1008.3 |
| 20260506030626 | 50 | 13 | 0.0 | 4.0 | 0.00 | 0.64 | 0.64 | 61 | 1008.1 |
| 20260506025647 | 50 | 19 | 2.0 | 4.0 | 0.00 | 0.64 | 0.64 | 62 | 1007.9 |
| 20260506024615 | 50 | 24 | 1.0 | 5.0 | 0.00 | 0.64 | 0.64 | 63 | 1007.8 |
| 20260506023628 | 50 | 304 | 0.0 | 0.0 | 0.00 | 0.64 | 0.64 | 63 | 1007.6 |
| 20260506022617 | 50 | 304 | 0.0 | 2.0 | 0.00 | 0.64 | 0.64 | 63 | 1007.5 |
| 20260506021626 | 50 | 304 | 1.0 | 9.0 | 0.00 | 0.64 | 0.64 | 62 | 1007.3 |
| 20260506020621 | 51 | 304 | 6.0 | 11.0 | 0.00 | 0.64 | 0.64 | 58 | 1007.3 |
| 20260506015623 | 52 | 286 | 8.0 | 11.0 | 0.00 | 0.64 | 0.64 | 55 | 1007.1 |
| 20260506014613 | 53 | 310 | 9.0 | 13.0 | 0.00 | 0.64 | 0.64 | 53 | 1007.0 |
| 20260506013622 | 54 | 308 | 10.0 | 15.0 | 0.00 | 0.64 | 0.64 | 50 | 1007.0 |
| 20260506012615 | 55 | 350 | 9.0 | 15.0 | 0.00 | 0.64 | 0.64 | 52 | 1006.9 |
| 20260506011626 | 54 | 295 | 9.0 | 14.0 | 0.00 | 0.64 | 0.64 | 50 | 1006.8 |
| 20260506010637 | 55 | 282 | 5.0 | 16.0 | 0.00 | 0.64 | 0.64 | 45 | 1006.8 |
| 20260506005617 | 57 | 292 | 10.0 | 16.0 | 0.00 | 0.64 | 0.64 | 42 | 1006.8 |
| 20260506004628 | 57 | 288 | 4.0 | 7.0 | 0.00 | 0.64 | 0.64 | 44 | 1006.8 |
| 20260506003617 | 57 | 288 | 3.0 | 8.0 | 0.00 | 0.64 | 0.64 | 48 | 1006.7 |
| 20260506002628 | 57 | 300 | 3.0 | 9.0 | 0.00 | 0.64 | 0.64 | 46 | 1006.8 |
| 20260506001619 | 58 | 311 | 5.0 | 13.0 | 0.00 | 0.64 | 0.64 | 47 | 1006.7 |
| 20260506000630 | 58 | 307 | 5.0 | 10.0 | 0.00 | 0.64 | 0.64 | 50 | 1006.6 |
| 20260505235630 | 58 | 291 | 3.0 | 16.0 | 0.00 | 0.64 | 0.64 | 51 | 1006.6 |
| 20260505234641 | 59 | 351 | 8.0 | 15.0 | 0.00 | 0.64 | 0.64 | 49 | 1006.5 |
| 20260505233618 | 59 | 311 | 5.0 | 11.0 | 0.00 | 0.64 | 0.64 | 49 | 1006.4 |
| 20260505232612 | 58 | 302 | 5.0 | 12.0 | 0.00 | 0.64 | 0.64 | 51 | 1006.3 |
| 20260505231622 | 57 | 299 | 6.0 | 11.0 | 0.00 | 0.64 | 0.64 | 53 | 1006.4 |
| 20260505230629 | 58 | 330 | 5.0 | 9.0 | 0.00 | 0.64 | 0.64 | 52 | 1006.4 |
| 20260505225631 | 58 | 279 | 2.0 | 8.0 | 0.00 | 0.64 | 0.64 | 53 | 1006.4 |
| 20260505224626 | 57 | 181 | 2.0 | 7.0 | 0.00 | 0.64 | 0.64 | 54 | 1006.4 |
| 20260505223636 | 56 | 183 | 2.0 | 12.0 | 0.00 | 0.64 | 0.64 | 54 | 1006.5 |
| 20260505222646 | 56 | 254 | 5.0 | 12.0 | 0.00 | 0.64 | 0.64 | 54 | 1006.6 |
| 20260505221614 | 55 | 93 | 8.0 | 14.0 | 0.00 | 0.64 | 0.64 | 63 | 1006.6 |
| 20260505220646 | 55 | 116 | 7.0 | 13.0 | 0.00 | 0.64 | 0.64 | 62 | 1006.8 |
| 20260505215630 | 55 | 84 | 3.0 | 12.0 | 0.00 | 0.64 | 0.64 | 63 | 1006.9 |
| 20260505214617 | 54 | 105 | 5.0 | 13.0 | 0.00 | 0.64 | 0.64 | 66 | 1007.2 |
| 20260505213624 | 54 | 160 | 7.0 | 15.0 | 0.00 | 0.64 | 0.64 | 65 | 1007.4 |
| 20260505212613 | 54 | 144 | 5.0 | 8.0 | 0.00 | 0.64 | 0.64 | 63 | 1007.6 |
| 20260505211625 | 53 | 205 | 6.0 | 11.0 | 0.00 | 0.64 | 0.64 | 64 | 1007.7 |
| 20260505210613 | 52 | 219 | 2.0 | 9.0 | 0.00 | 0.64 | 0.64 | 67 | 1007.9 |
| 20260505205631 | 52 | 104 | 4.0 | 12.0 | 0.00 | 0.64 | 0.64 | 68 | 1008.1 |